Date String (YYYY-MM-DD hh:mm:ss) UTC,Instrument flags,absolute air pressure of the measurement (hPa),sample flow rate (lpm),inlet stack bypass flow (lpm),air temperature of the measurement (°C),ambient temperature measured by the external sensor (°C),aerosol sample conditioner tube jacket temperature (°C),OPC LED temperature (°C),internal box temperature (°C),relative humidity of the measurement (%),span deviation,mass concentration of particles derived from Lorenz-Mie calculation of OPC scattering (μg/m³),mass concentration of particles derived from Lorenz-Mie calculation of OPC scattering (μg/m³),mass concentration of particles derived from Lorenz-Mie calculation of OPC scattering (μg/m³)
DateTimeUTC,F1_M11,P_M11,Q1_M11,Q2_M11,T1_M11,T2_M11,T3_M11,T4_M11,T5_M11,U1_M11,ZSPAN_M11,X0_M11,X2_M11,X1_M11
2023-06-10 15:00:00,SystemResetWarning,0830.0,5.01,000.00,030.1,028.5,000.0,038.6,031.5,24.5,0000.0,0008.02,0004.07,0003.31
2023-06-10 15:01:00,SystemResetWarning,0830.0,5.00,000.00,030.1,028.5,000.0,038.6,031.5,24.3,0000.0,0008.27,0004.10,0003.30
2023-06-10 15:02:00,SystemResetWarning,0830.0,5.00,000.00,030.1,028.5,000.0,038.6,031.5,23.1,0000.0,0008.38,0004.15,0003.31
2023-06-10 15:03:00,SystemResetWarning,0830.0,4.99,000.00,030.1,028.5,000.0,038.6,031.6,23.9,0000.0,0008.32,0004.14,0003.32
2023-06-10 15:04:00,SystemResetWarning,0830.0,4.98,000.00,030.1,027.5,000.0,038.6,031.7,24.2,0000.0,0008.34,0004.15,0003.32
2023-06-10 15:05:00,SystemResetWarning,0830.0,5.01,000.00,030.1,025.5,000.0,038.6,031.6,24.5,0000.0,0008.45,0004.19,0003.32
2023-06-10 15:06:00,SystemResetWarning,0830.0,5.01,000.00,030.1,025.1,000.0,038.5,031.5,23.9,0000.0,0008.41,0004.19,0003.33
2023-06-10 15:07:00,SystemResetWarning,0830.0,5.01,000.00,030.0,025.5,000.0,038.5,031.2,24.0,0000.0,0008.40,0004.20,0003.33
2023-06-10 15:08:00,SystemResetWarning,0830.0,5.00,000.00,029.9,025.8,000.0,038.5,031.1,24.3,0000.0,0008.32,0004.17,0003.33
2023-06-10 15:09:00,SystemResetWarning,0830.0,5.01,000.00,029.8,026.2,000.0,038.5,031.1,24.3,0000.0,0008.51,0004.18,0003.32
2023-06-10 15:10:00,SystemResetWarning,0830.0,5.00,000.00,029.8,026.6,000.0,038.5,031.1,24.5,0000.0,0008.42,0004.14,0003.32
2023-06-10 15:11:00,SystemResetWarning,0830.0,5.00,000.00,029.8,026.9,000.0,038.4,031.1,25.1,0000.0,0008.38,0004.14,0003.32
2023-06-10 15:12:00,SystemResetWarning,0830.0,5.00,000.00,029.7,027.1,000.0,038.4,031.1,25.2,0000.0,0008.28,0004.14,0003.34
2023-06-10 15:13:00,SystemResetWarning,0830.0,5.00,000.00,029.7,027.3,000.0,038.4,031.1,25.9,0000.0,0008.13,0004.10,0003.34
2023-06-10 15:14:00,SystemResetWarning,0830.0,4.99,000.00,029.7,027.5,000.0,038.4,031.1,25.0,0000.0,0008.13,0004.12,0003.35
2023-06-10 15:15:00,SystemResetWarning,0830.0,4.99,000.00,029.7,027.7,000.0,038.4,031.1,24.7,0000.0,0008.21,0004.15,0003.36
2023-06-10 15:16:00,SystemResetWarning,0830.0,5.00,000.00,029.7,027.8,000.0,038.4,031.1,24.4,0000.0,0008.19,0004.15,0003.36
2023-06-10 15:17:00,SystemResetWarning,0830.0,5.00,000.00,029.7,027.9,000.0,038.4,031.1,25.5,0000.0,0008.15,0004.16,0003.37
2023-06-10 15:18:00,SystemResetWarning,0830.0,5.01,000.00,029.7,028.0,000.0,038.4,031.2,24.5,0000.0,0008.24,0004.14,0003.38
2023-06-10 15:19:00,SystemResetWarning,0830.0,5.00,000.00,029.7,028.0,000.0,038.3,031.2,24.7,0000.0,0008.17,0004.16,0003.39
2023-06-10 15:20:00,SystemResetWarning,0830.0,5.00,000.00,029.8,028.1,000.0,038.3,031.2,23.7,0000.0,0007.80,0004.15,0003.40
2023-06-10 15:21:00,SystemResetWarning,0830.0,5.01,000.00,029.8,028.1,000.0,038.4,031.2,22.9,0000.0,0007.82,0004.16,0003.40
2023-06-10 15:22:00,SystemResetWarning,0830.0,5.00,000.00,029.8,028.2,000.0,038.3,031.2,22.7,0000.0,0007.76,0004.13,0003.39
2023-06-10 15:23:00,SystemResetWarning,0830.0,4.99,000.00,029.8,028.2,000.0,038.4,031.2,23.3,0000.0,0007.96,0004.13,0003.38
2023-06-10 15:24:00,SystemResetWarning,0830.0,5.00,000.00,029.8,028.3,000.0,038.4,031.3,24.2,0000.0,0008.30,0004.16,0003.40
2023-06-10 15:25:00,SystemResetWarning,0830.0,5.00,000.00,029.8,028.3,000.0,038.4,031.3,24.0,0000.0,0008.31,0004.16,0003.40
2023-06-10 15:26:00,SystemResetWarning,0830.1,5.00,000.00,029.9,028.3,000.0,038.4,031.3,24.5,0000.0,0008.30,0004.16,0003.40
2023-06-10 15:27:00,SystemResetWarning,0830.0,5.00,000.00,029.9,028.3,000.0,038.4,031.3,24.1,0000.0,0008.43,0004.15,0003.40
2023-06-10 15:28:00,SystemResetWarning,0830.0,4.99,000.00,029.9,027.2,000.0,038.4,031.4,23.7,0000.0,0008.53,0004.12,0003.40
2023-06-10 15:29:00,SystemResetWarning,0830.0,5.01,000.00,029.9,025.2,000.0,038.3,031.3,23.3,0000.0,0008.41,0004.10,0003.41
2023-06-10 15:30:00,SystemResetWarning,0830.0,5.01,000.00,029.8,024.8,000.0,038.3,031.2,23.4,0000.0,0008.36,0004.10,0003.42
2023-06-10 15:31:00,SystemResetWarning,0830.0,5.00,000.00,029.7,025.1,000.0,038.2,031.0,23.0,0000.0,0008.33,0004.08,0003.43
2023-06-10 15:32:00,SystemResetWarning,0830.0,4.99,000.00,029.6,025.5,000.0,038.2,030.8,24.2,0000.0,0008.57,0004.10,0003.44
2023-06-10 15:33:00,SystemResetWarning,0830.0,5.00,000.00,029.6,025.9,000.0,038.2,030.9,25.1,0000.0,0008.57,0004.12,0003.46
2023-06-10 15:34:00,SystemResetWarning,0830.0,5.01,000.00,029.5,026.3,000.0,038.2,030.9,25.1,0000.0,0008.50,0004.13,0003.47
2023-06-10 15:35:00,SystemResetWarning,0830.0,4.99,000.00,029.5,026.6,000.0,038.2,030.9,25.0,0000.0,0008.18,0004.13,0003.48
2023-06-10 15:36:00,SystemResetWarning,0830.0,5.00,000.00,029.5,026.9,000.0,038.2,030.9,25.4,0000.0,0008.30,0004.17,0003.50
2023-06-10 15:37:00,SystemResetWarning,0830.0,5.00,000.00,029.5,027.1,000.0,038.2,030.9,25.0,0000.0,0008.31,0004.17,0003.52
2023-06-10 15:38:00,SystemResetWarning,0830.0,4.99,000.00,029.5,027.3,000.0,038.1,030.9,24.9,0000.0,0008.95,0004.18,0003.54
2023-06-10 15:39:00,SystemResetWarning,0830.0,5.00,000.00,029.5,027.5,000.0,038.1,030.9,24.9,0000.0,0009.39,0004.18,0003.56
2023-06-10 15:40:00,SystemResetWarning,0830.0,5.00,000.00,029.5,027.6,000.0,038.1,030.9,24.2,0000.0,0009.41,0004.20,0003.58
2023-06-10 15:41:00,SystemResetWarning,0830.0,5.00,000.00,029.5,027.7,000.0,038.1,031.0,24.6,0000.0,0009.42,0004.21,0003.58
2023-06-10 15:42:00,SystemResetWarning,0830.0,4.99,000.00,029.5,027.8,000.0,038.1,031.0,25.4,0000.0,0009.49,0004.23,0003.59
2023-06-10 15:43:00,SystemResetWarning,0830.0,5.00,000.00,029.5,027.9,000.0,038.1,031.1,24.7,0000.0,0009.36,0004.26,0003.60
2023-06-10 15:44:00,SystemResetWarning,0830.0,5.00,000.00,029.6,028.0,000.0,038.1,031.0,24.6,0000.0,0009.57,0004.32,0003.62
2023-06-10 15:45:00,SystemResetWarning,0830.0,5.01,000.00,029.6,028.0,000.0,038.1,031.1,24.3,0000.0,0009.77,0004.35,0003.64
2023-06-10 15:46:00,SystemResetWarning,0830.0,5.01,000.00,029.6,028.1,000.0,038.1,031.1,24.4,0000.0,0009.78,0004.34,0003.66
2023-06-10 15:47:00,SystemResetWarning,0830.0,5.01,000.00,029.6,028.1,000.0,038.2,031.1,25.1,0000.0,0010.11,0004.31,0003.67
2023-06-10 15:48:00,SystemResetWarning,0830.0,5.00,000.00,029.6,028.1,000.0,038.2,031.1,25.6,0000.0,0010.15,0004.34,0003.69
2023-06-10 15:49:00,SystemResetWarning,0830.0,5.00,000.00,029.7,028.2,000.0,038.2,031.2,25.5,0000.0,0009.60,0004.37,0003.71
2023-06-10 15:50:00,SystemResetWarning,0830.0,5.00,000.00,029.7,028.2,000.0,038.2,031.2,24.6,0000.0,0009.51,0004.46,0003.74
2023-06-10 15:51:00,SystemResetWarning,0830.0,4.98,000.00,029.7,026.9,000.0,038.2,031.3,25.5,0000.0,0009.69,0004.50,0003.75
2023-06-10 15:52:00,SystemResetWarning,0830.0,5.01,000.00,029.7,025.8,000.0,038.1,031.3,25.7,0000.0,0009.90,0004.54,0003.78
2023-06-10 15:53:00,SystemResetWarning,0830.0,5.01,000.00,029.7,026.0,000.0,038.1,031.1,25.1,0000.0,0010.11,0004.56,0003.81
2023-06-10 15:54:00,SystemResetWarning,0830.0,5.00,000.00,029.6,026.2,000.0,038.1,030.9,25.9,0000.0,0010.15,0004.60,0003.84
2023-06-10 15:55:00,SystemResetWarning,0830.0,5.00,000.00,029.6,026.5,000.0,038.1,030.9,25.8,0000.0,0010.31,0004.65,0003.86
2023-06-10 15:56:00,SystemResetWarning,0830.0,5.00,000.00,029.5,026.8,000.0,038.1,031.0,25.6,0000.0,0010.78,0004.69,0003.88
2023-06-10 15:57:00,SystemResetWarning,0830.0,5.00,000.00,029.5,027.1,000.0,038.1,031.0,25.6,0000.0,0010.82,0004.74,0003.90
2023-06-10 15:58:00,SystemResetWarning,0830.0,5.00,000.00,029.5,027.3,000.0,038.1,031.0,26.5,0000.0,0010.45,0004.78,0003.92
2023-06-10 15:59:00,SystemResetWarning,0830.0,5.00,000.00,029.5,027.5,000.0,038.1,031.0,26.1,0000.0,0010.56,0004.78,0003.92
